[[{"header":{"parameterUnit":"m.s-1","parameterCategory":1,"la1":30.2991,"la2":30.254,"lo1":-89.0895,"lo2":-89.0444,"dy":0.0017,"dx":0.0017,"nx":28,"ny":28,"refTime":"2024-08-28T21:00:00:Z","depth":0,"parameterNumber":2,"parameterNumberName":"U-component_of_WINDS"},"data":[0,0,0,0,0,0,0,0,0,0,0,0,0,0,0,0,0,0,0,0,0,0,0,0,0,0,0,0,0,0,0,0,0,0,0,0,0,0,0,0,0,0,0,0,0,0,0,0,0,0,0,0,0,0,0,0,0,0,-5.6015,-5.6016,0,-5.6041,-5.6041,-5.6041,-5.5937,-5.5934,-5.5931,-5.5928,-5.5951,-5.5955,-5.5958,0,0,0,0,0,0,0,0,0,0,0,0,0,-5.5874,-5.5878,-5.6015,-5.6016,-5.6016,-5.6041,-5.6041,-5.6041,-5.5938,-5.5934,-5.593,-5.5927,-5.595,-5.5954,-5.5958,0,0,0,0,0,0,0,0,0,0,0,0,0,-5.5921,-5.5879,-5.6015,-5.5967,-5.5963,-5.6041,-5.6041,-5.6042,-5.5939,-5.5934,-5.5929,-5.5925,-5.5949,-5.5954,-5.5959,-5.6083,0,0,-5.5975,-5.5977,0,0,0,0,0,0,0,0,-5.5919,-5.5927,-5.5974,-5.5971,-5.5966,-5.5981,-5.6,-5.6055,-5.594,-5.5948,-5.5928,-5.5923,-5.5965,-5.5968,-5.5983,-5.6084,-5.6085,-5.5975,-5.5978,-5.5981,-5.5982,0,0,0,0,0,0,0,-5.5916,-5.5925,-5.6025,-5.5975,-5.597,-5.5944,-5.5945,-5.601,-5.5982,-5.5947,-5.5939,-5.5944,-5.5962,-5.5978,-5.5983,-5.6085,-5.5975,-5.598,-5.5983,-5.5985,-5.629,-5.6295,0,0,0,0,0,0,-5.5919,-5.5923,-5.6024,-5.6026,-5.5931,-5.595,-5.5952,-5.5981,-5.5981,-5.5976,-5.5948,-5.5939,-5.5972,-5.5977,-5.5983,-5.6129,-5.5981,-5.5986,-5.5989,-5.6286,-5.6292,-5.6297,0,0,0,0,0,0,-5.5917,-5.5929,-5.6023,-5.5973,-5.5982,-5.5957,-5.5991,-5.5984,-5.6,-5.5981,-5.5976,-5.597,-5.5968,-5.5976,-5.6059,-5.6128,-5.5988,-5.5993,-5.628,-5.6287,-5.6294,-5.6421,0,0,0,0,0,0,-5.5913,-5.5929,-5.5976,-5.5974,-5.5986,-5.61,-5.5995,-5.5988,-5.601,-5.5999,-5.6001,-5.5997,-5.5965,-5.6052,-5.6065,-5.6133,-5.5997,-5.6273,-5.6283,-5.6292,-5.641,-5.6432,-5.645,0,0,0,0,0,-5.5908,-5.601,-5.5979,-5.5992,-5.6044,-5.6104,-5.611,-5.6073,-5.6016,-5.6063,-5.6051,-5.5997,-5.6119,-5.6062,-5.6075,-5.6145,-5.6269,-5.628,-5.6291,-5.6401,-5.6427,-5.6449,0,0,0,0,0,0,-5.6018,-5.6008,-5.5974,-5.6078,-5.6093,-5.6086,-5.6144,-5.6102,-5.6132,-5.612,-5.6071,-5.6073,-5.6165,-5.6163,-5.61,-5.6266,-5.6184,-5.6198,-5.6263,-5.6288,-5.6307,-5.6305,-5.6001,0,0,0,0,0,-5.6055,-5.6105,-5.6093,-5.6186,-5.6196,-5.617,-5.6194,-5.6164,-5.6177,-5.6182,-5.6176,-5.619,-5.6232,-5.626,-5.6297,-5.641,-5.6409,-5.6466,-5.6485,-5.6502,-5.6514,-5.6575,-5.66,-5.6334,-5.6334,-5.6334,0,0,-5.613,-5.6131,-5.6165,-5.6209,-5.6216,-5.6269,-5.6175,-5.6234,-5.6273,-5.6191,-5.6269,-5.6266,-5.6278,-5.6378,-5.6421,-5.6379,-5.6588,-5.6516,-5.6529,-5.6533,-5.6589,-5.6614,-5.6636,-5.6342,-5.634,-5.6339,0,0,-5.6294,-5.63,-5.6379,-5.6389,-5.6403,-5.6386,-5.6405,-5.6406,-5.6401,-5.6479,-5.6419,-5.6464,-5.6537,-5.6548,-5.6564,-5.6736,-5.6687,-5.6749,-5.6852,-5.6912,-5.6933,-5.6951,-5.7012,-5.7035,-5.6762,-5.6763,-5.6763,0,-5.6385,-5.6463,-5.6424,-5.6488,-5.6509,-5.644,-5.6519,-5.6531,-5.6556,-5.6572,-5.6525,-5.6616,-5.6619,-5.672,-5.6763,-5.6778,-5.6798,-5.6748,-5.6933,-5.6951,-5.6967,-5.7025,-5.7048,-5.677,-5.6769,-5.6768,-5.6768,0,-5.6575,-5.663,-5.6692,-5.672,-5.6748,-5.6819,-5.679,-5.6823,-5.6792,-5.678,-5.6861,-5.6863,-5.69,-5.6922,-5.6892,-5.702,-5.6994,-5.6941,-5.6857,-5.7001,-5.7054,-5.7076,-5.6781,-5.6778,-5.6776,-5.6774,0,0,-5.6806,-5.6814,-5.6837,-5.6849,-5.6861,-5.6903,-5.6972,-5.7009,-5.7038,-5.7059,-5.7115,-5.718,-5.7132,-5.7149,-5.712,-5.7172,-5.7309,-5.7113,-5.7112,-5.7149,-5.745,-5.7489,-5.7515,-5.7277,-5.7281,-5.7285,-5.7449,0,-5.6967,-5.7085,-5.7053,-5.7171,-5.7222,-5.7158,-5.7218,-5.7232,-5.7222,-5.7263,-5.7252,-5.7299,-5.7232,-5.7243,-5.7292,-5.7282,-5.7368,-5.727,-5.7328,-5.7331,-5.7326,-5.7543,-5.7584,-5.7739,-5.747,-5.7473,-5.7476,0,-5.7169,-5.72,-5.7324,-5.7329,-5.7349,-5.7403,-5.7436,-5.7477,-5.7491,-5.7481,-5.7502,-5.7463,-5.753,-5.7448,-5.754,-5.7474,-5.7496,-5.7495,-5.75,-5.7503,-5.7411,-5.7551,-5.7788,-5.7811,-5.7508,-5.7506,-5.7504,0,-5.7325,-5.7397,-5.748,-5.7493,-5.7502,-5.7542,-5.7547,-5.7557,-5.7582,-5.7611,-5.7627,-5.7663,-5.7682,-5.7711,-5.7682,-5.7625,-5.7779,-5.7694,-5.7771,-5.7772,-5.7805,-5.7803,-5.8047,-5.7822,-5.7822,-5.7821,-5.7821,0,-5.7507,-5.7585,-5.7551,-5.7602,-5.7688,-5.7651,-5.7736,-5.7734,-5.7745,-5.7794,-5.7741,-5.7788,-5.7748,-5.7792,-5.777,-5.785,-5.7859,-5.7852,-5.7845,-5.7856,-5.7857,-5.7869,-5.7857,-5.7827,-5.7826,-5.7825,-5.7824,0,-5.7694,-5.7675,-5.7761,-5.7763,-5.7766,-5.7829,-5.783,-5.7877,-5.7866,-5.7929,-5.7942,-5.7923,-5.7972,-5.7947,-5.7997,-5.7982,-5.8085,-5.8064,-5.8081,-5.8075,-5.8153,-5.8146,-5.8413,-5.8446,-5.82,-5.8203,-5.8205,0,-5.7811,-5.7869,-5.7879,-5.7909,-5.7919,-5.7968,-5.7994,-5.796,-5.799,-5.8013,-5.8057,-5.8102,-5.8136,-5.8218,-5.8208,-5.8246,-5.8225,-5.8316,-5.823,-5.824,-5.8226,-5.8222,-5.8228,-5.8333,-5.8336,-5.8338,-5.834,0,-5.802,-5.8008,-5.8048,-5.8087,-5.8121,-5.8149,-5.8172,-5.82,-5.8167,-5.8203,-5.8253,-5.828,-5.8333,-5.8378,-5.8412,-5.8416,-5.8373,-5.8368,-5.8387,-5.8398,-5.8405,-5.8402,-5.8126,-5.8361,-5.8359,-5.8357,-5.8356,-5.8355,-5.8174,-5.8224,-5.8239,-5.8287,-5.8302,-5.8326,-5.8371,-5.8366,-5.8408,-5.8449,-5.8427,-5.8486,-5.85,-5.8542,-5.8553,-5.8598,-5.8561,-5.859,-5.8597,-5.8605,-5.8615,-5.84,-5.8604,-5.8603,-5.8603,-5.8602,-5.8602,0,-5.838,-5.8387,-5.8432,-5.8468,-5.8505,-5.8464,-5.8488,-5.8522,-5.8575,-5.8593,-5.8629,-5.8688,-5.8732,-5.8727,-5.8768,-5.8805,-5.8786,-5.8817,-5.8813,-5.8814,-5.8645,-5.8624,-5.8831,-5.8831,-5.8831,-5.8831,-5.8831,-5.8831,-5.8491,-5.8574,-5.8564,-5.8654,-5.866,-5.8719,-5.8737,-5.8759,-5.8773,-5.8841,-5.8879,-5.8876,-5.8885,-5.8926,-5.8965,-5.8962,-5.8979,-5.9017,-5.9007,-5.8849,-5.8826,-5.8804,-5.8784,-5.9021,-5.9022,-5.9172,-5.9173,-5.9174]},{"header":{"parameterUnit":"m.s-1","parameterCategory":1,"la1":30.2991,"la2":30.254,"lo1":-89.0895,"lo2":-89.0444,"dy":0.0017,"dx":0.0017,"nx":28,"ny":28,"refTime":"2024-08-28T21:00:00:Z","depth":0,"parameterNumber":3,"parameterNumberName":"V-component_of_WINDS"},"data":[0,0,0,0,0,0,0,0,0,0,0,0,0,0,0,0,0,0,0,0,0,0,0,0,0,0,0,0,0,0,0,0,0,0,0,0,0,0,0,0,0,0,0,0,0,0,0,0,0,0,0,0,0,0,0,0,0,0,1.5997,1.5998,0,1.6064,1.6064,1.6065,1.61,1.61,1.61,1.61,1.6165,1.6167,1.6168,0,0,0,0,0,0,0,0,0,0,0,0,0,1.5898,1.5899,1.5997,1.5998,1.5999,1.6063,1.6064,1.6065,1.61,1.61,1.61,1.61,1.6165,1.6166,1.6169,0,0,0,0,0,0,0,0,0,0,0,0,0,1.595,1.59,1.5997,1.6024,1.6027,1.6063,1.6064,1.6065,1.61,1.61,1.61,1.61,1.6164,1.6166,1.6169,1.6183,0,0,1.6176,1.6178,0,0,0,0,0,0,0,0,1.5947,1.5954,1.6019,1.6022,1.6025,1.6074,1.6053,1.6105,1.61,1.6072,1.61,1.61,1.6134,1.6139,1.6151,1.6186,1.6188,1.6177,1.6178,1.6179,1.618,0,0,0,0,0,0,0,1.5943,1.5951,1.6023,1.602,1.6024,1.6032,1.6039,1.6063,1.6102,1.6074,1.6077,1.6085,1.6136,1.6149,1.6153,1.6189,1.6177,1.6179,1.618,1.6181,1.6239,1.624,0,0,0,0,0,0,1.5936,1.5948,1.6021,1.6025,1.5986,1.6034,1.6042,1.6058,1.6102,1.6108,1.6084,1.6086,1.6145,1.615,1.6156,1.6176,1.6179,1.6182,1.6183,1.6239,1.624,1.624,0,0,0,0,0,0,1.5933,1.5942,1.6018,1.5987,1.5998,1.6035,1.6053,1.6059,1.6072,1.6109,1.6116,1.6091,1.6145,1.6152,1.6176,1.6178,1.6183,1.6185,1.6239,1.6239,1.624,1.6215,0,0,0,0,0,0,1.593,1.5941,1.5947,1.5987,1.5999,1.6038,1.6053,1.606,1.6077,1.6079,1.6117,1.6123,1.6146,1.6172,1.6179,1.6182,1.6187,1.6239,1.6239,1.624,1.6216,1.6214,1.6213,0,0,0,0,0,1.5927,1.5936,1.5947,1.5956,1.6008,1.6038,1.6045,1.6071,1.6077,1.6083,1.6107,1.6122,1.6177,1.6174,1.6182,1.6186,1.6239,1.6239,1.624,1.6216,1.6214,1.6213,0,0,0,0,0,0,1.5894,1.5942,1.5954,1.5978,1.6004,1.6044,1.6053,1.6068,1.6093,1.6094,1.6125,1.6133,1.6154,1.6173,1.6169,1.6202,1.621,1.6211,1.619,1.6188,1.6187,1.6182,1.6189,0,0,0,0,0,1.589,1.5911,1.5952,1.5968,1.5981,1.6015,1.6029,1.6047,1.6075,1.6086,1.6112,1.6138,1.6161,1.6175,1.6199,1.6219,1.6227,1.6225,1.6224,1.6222,1.6223,1.6236,1.6235,1.624,1.624,1.624,0,0,1.588,1.5909,1.5921,1.5963,1.5985,1.6006,1.6024,1.6045,1.6061,1.6089,1.6114,1.6134,1.6164,1.6187,1.6198,1.6202,1.6224,1.6222,1.6221,1.6223,1.6236,1.6235,1.6235,1.624,1.624,1.624,0,0,1.5875,1.5899,1.5916,1.5938,1.5973,1.5995,1.5999,1.6038,1.6052,1.6078,1.61,1.6119,1.6158,1.618,1.6196,1.62,1.6214,1.6206,1.6198,1.621,1.621,1.621,1.6212,1.6212,1.6207,1.6207,1.6207,0,1.5859,1.5893,1.5922,1.5943,1.5961,1.5989,1.6006,1.6026,1.6065,1.6077,1.6082,1.6133,1.6155,1.6183,1.6185,1.6197,1.6202,1.6202,1.6208,1.6208,1.6208,1.621,1.6211,1.6206,1.6206,1.6206,1.6206,0,1.5871,1.5895,1.5904,1.5943,1.5962,1.5981,1.6013,1.6028,1.6045,1.6067,1.6093,1.6121,1.6152,1.616,1.6175,1.619,1.6192,1.6202,1.621,1.6206,1.6209,1.621,1.6204,1.6205,1.6205,1.6205,0,0,1.5846,1.5903,1.5906,1.5924,1.5965,1.5983,1.6003,1.6034,1.6047,1.6073,1.6091,1.6124,1.6134,1.6153,1.6171,1.6182,1.6184,1.6191,1.6192,1.6189,1.6202,1.6195,1.6195,1.6194,1.6194,1.6195,1.62,0,1.5846,1.5885,1.5913,1.594,1.5962,1.599,1.6007,1.6034,1.6055,1.6076,1.6099,1.6123,1.6134,1.6145,1.6157,1.6181,1.6187,1.6181,1.6211,1.6211,1.6202,1.6196,1.6188,1.6192,1.6201,1.6201,1.6201,0,1.5851,1.5879,1.5909,1.5949,1.5959,1.5974,1.6005,1.6026,1.6056,1.6071,1.6092,1.6112,1.6134,1.6141,1.6172,1.6167,1.6181,1.6195,1.6196,1.6199,1.6206,1.62,1.6193,1.6194,1.6203,1.6203,1.6203,0,1.583,1.5875,1.5899,1.5914,1.596,1.5971,1.599,1.6022,1.6039,1.6066,1.6077,1.6105,1.6121,1.6143,1.6169,1.6172,1.6198,1.6207,1.6211,1.621,1.6215,1.6214,1.621,1.6223,1.6223,1.6223,1.6223,0,1.5828,1.5845,1.589,1.5905,1.5926,1.5957,1.5977,1.5998,1.6026,1.6045,1.607,1.6088,1.6122,1.6144,1.6165,1.6188,1.6194,1.6207,1.6212,1.6205,1.6203,1.6214,1.6214,1.6223,1.6223,1.6223,1.6223,0,1.5807,1.5838,1.5866,1.5909,1.592,1.5933,1.5969,1.5985,1.6008,1.6032,1.6039,1.6075,1.6102,1.6131,1.6167,1.6182,1.6204,1.6211,1.6193,1.6197,1.6199,1.6199,1.6202,1.6204,1.6215,1.6215,1.6215,0,1.5803,1.5818,1.5862,1.5878,1.5897,1.5921,1.594,1.5971,1.5989,1.6026,1.6037,1.6066,1.6091,1.6132,1.6161,1.6189,1.6198,1.6197,1.6202,1.6194,1.6198,1.6197,1.6199,1.6196,1.6195,1.6195,1.6195,0,1.5793,1.5809,1.5834,1.5866,1.5887,1.5913,1.594,1.5951,1.5988,1.6006,1.6035,1.6054,1.6093,1.6121,1.6153,1.6172,1.619,1.6193,1.6196,1.6188,1.6178,1.6184,1.619,1.6193,1.6193,1.6193,1.6193,1.6193,1.5782,1.5796,1.583,1.5858,1.5882,1.5907,1.5924,1.595,1.5975,1.6009,1.6026,1.6055,1.6086,1.6131,1.615,1.6173,1.6178,1.6181,1.6182,1.6182,1.6181,1.6174,1.6178,1.6178,1.6178,1.6179,1.6179,0,1.5773,1.5797,1.5823,1.586,1.5882,1.5898,1.5929,1.5946,1.5972,1.6,1.6025,1.6058,1.6086,1.6118,1.6148,1.616,1.6168,1.6166,1.6166,1.617,1.6174,1.6169,1.6159,1.6159,1.6159,1.6159,1.6159,1.6159,1.5772,1.5797,1.5817,1.5855,1.5878,1.5907,1.5924,1.5947,1.597,1.6006,1.603,1.6051,1.6081,1.6114,1.614,1.6149,1.6159,1.6154,1.6165,1.6168,1.617,1.6171,1.6167,1.6156,1.6156,1.616,1.616,1.616]}]]